Location: Borowce
(50.8255°N, 19.6209°E)
Time: 18:50:56
(UTC+00:00)

Daily predictions for brighter satellites

Satellite Brightness Start Highest point End
(mag) Time Altitude Azimuth Time Altitude Azimuth Time Altitude Azimuth
Cosmos 2360 4.3 19:02:17 10° NNW 19:08:03 84° ENE 19:13:45 10° SSE
Cosmos 1980 Rocket 3.4 19:04:43 10° NNW 19:09:39 30° NE 19:14:34 10° ESE
USA 234 3.6 19:05:22 10° ENE 19:11:29 41° SE 19:17:35 10° SSW
Helios 1A 3.0 19:08:11 10° NNE 19:12:11 56° ESE 19:16:08 10° S
Cosmos 2151 4.2 19:09:34 10° NNW 19:13:32 42° W 19:17:29 10° SSW
Resurs 01 Rocket 4.2 19:14:06 10° SW 19:17:09 18° W 19:20:12 10° NW
Terra 1.8 19:12:39 10° SSE 19:17:20 77° ENE 19:22:03 10° NNW
SL-16 R/B 4.4 19:16:26 10° N 19:19:47 16° NNE 19:23:06 10° ENE
Helios 1B rocket 3.5 19:16:20 10° S 19:19:47 38° W 19:23:16 10° NNW
ATLAS CENTAUR R/B 1.5 19:17:30 10° SSW 19:20:57 39° ESE 19:24:32 10° NE
Cosmos 2344 3.7 19:15:27 10° SW 19:22:59 78° NW 19:30:25 10° NE
SAR-Lupe-2 3.6 19:23:51 10° SSE 19:27:23 68° ENE 19:30:57 10° N
Cosmos 1125 Rocket 3.6 19:23:14 10° NNW 19:28:34 70° ENE 19:33:49 10° SSE
CZ-4B R/B 4.4 19:24:33 10° SSW 19:29:43 40° W 19:34:50 10° NNW
BlueWalker 3 1.8 19:29:03 10° WNW 19:32:42 80° SSW 19:36:16 11° ESE
Cosmos 1346 Rocket 2.6 19:32:34 10° N 19:36:17 78° ENE 19:39:58 10° SSE
Cosmos 1400 Rocket 2.7 19:32:47 10° SSW 19:36:28 78° WNW 19:40:09 10° N
CZ-4C R/B 3.8 19:31:24 10° NW 19:38:09 47° WSW 19:46:17 10° S
SL-8 Rocket 4.2 19:33:09 10° N 19:39:14 57° ENE 19:45:04 11° SSE
IRS-1C Rocket 4.2 19:34:39 10° SSE 19:39:54 73° ENE 19:45:11 10° NNW
Cosmos 2327 Rocket 4.5 19:33:53 10° N 19:40:06 81° E 19:46:11 10° SSE
CENTAUR R/B 4.5 19:35:02 10° NW 19:41:33 34° NNE 19:49:14 10° ENE
Ariane Rocket 3.3 19:36:54 11° SE 19:41:42 57° ENE 19:46:41 10° N
Cosmos 1697 Rocket 2.7 19:36:37 10° NNW 19:42:20 83° ENE 19:47:33 12° SSE
Cosmos 44 3.2 19:38:09 10° NW 19:42:42 89° ENE 19:46:54 13° SE
Cosmos 1570 Rocket 4.4 19:41:12 10° S 19:46:07 44° ESE 19:51:07 10° NE
Cosmos 1238 Rocket 4.0 19:46:06 14° SE 19:48:08 21° E 19:50:45 10° NE
Lacrosse 5 rocket 1.3 19:46:35 10° WNW 19:50:03 51° SW 19:52:35 16° SSE
Cosmos 1867 3.6 19:50:43 10° NW 19:56:13 84° SW 20:00:45 15° SE
Cosmos-2242 3.0 19:52:28 10° S 19:56:45 90° ENE 20:01:03 10° N
Nadezhda 1 Rocket 4.3 19:50:57 10° SSW 19:57:02 71° WNW 20:03:14 10° N
Cosmos 2150 Rocket 4.4 19:53:57 10° NNW 19:59:18 59° ENE 20:03:40 15° SE
Cosmos 1536 4.0 19:57:03 10° N 20:00:22 27° ENE 20:02:42 16° ESE
Cosmos 2341 Rocket 4.0 19:54:23 10° N 20:00:41 80° E 20:06:24 13° SSE
SeaSat 1 2.9 19:57:02 14° SE 20:01:10 54° NE 20:05:57 10° NNW
Cosmos 2082 Rocket 3.4 20:00:19 15° SE 20:03:21 23° ESE 20:07:39 10° NE
Okean O Rocket 3.5 19:59:49 10° SSW 20:03:29 26° W 20:07:09 10° NW
Cosmos 2221 3.3 20:01:07 16° SE 20:03:45 32° E 20:07:30 10° NNE
SPOT 3 Rocket 3.6 20:02:59 13° SSE 20:07:37 85° WSW 20:12:46 10° NNW
Okean-O 4.2 20:05:02 10° SSW 20:08:56 31° W 20:12:52 10° NNW
Okean 1 3.9 20:08:12 19° SE 20:10:13 34° E 20:13:34 10° NNE
ERS-1 Rocket 4.3 20:06:26 10° SSW 20:11:00 34° W 20:15:35 10° NNW
Cosmos 192 4.4 20:08:32 10° NNW 20:13:29 74° ENE 20:17:05 19° SSE
Cosmos 773 Rocket 4.3 20:11:34 13° S 20:15:45 43° ESE 20:20:37 10° NE
Cosmos 1674 3.7 20:18:53 13° ENE 20:18:53 13° ENE 20:19:37 10° ENE
ISS -3.7 20:18:05 10° WNW 20:21:26 64° SSW 20:23:18 23° SE
Cosmos 1766 Rocket 4.4 20:18:32 10° N 20:22:39 37° ENE 20:25:10 20° SE
Spot 2 Rocket 4.4 20:17:54 10° S 20:22:41 43° W 20:27:30 10° NNW
Cosmos 2084 Rocket 3.5 20:18:59 10° SSW 20:23:08 54° SE 20:27:18 10° NE
Cosmos 220 Rocket 4.5 20:21:24 21° SSE 20:23:33 36° ESE 20:27:18 10° NE
BREEZE-M R/B 4.0 20:06:51 10° W 20:23:48 71° SSW 20:27:31 15° ESE
NOSS 3-1 (C) 2.9 20:20:15 10° SW 20:25:02 75° SE 20:30:56 10° NE
ARIANE 6 FM1 Upper Stage 3.2 20:21:14 10° WSW 20:25:12 60° NW 20:29:14 10° NE
Cosmos 2333 Rocket 4.1 20:23:20 10° NNW 20:27:52 23° NE 20:32:22 10° E
Cosmos 1833 Rocket 3.0 20:25:32 10° SW 20:31:10 70° WNW 20:36:50 10° NNE
Cosmos 1356 Rocket 3.4 20:28:38 13° SSW 20:32:19 83° W 20:36:28 10° N
Cosmos 1733 4.5 20:31:08 10° NNW 20:33:47 26° W 20:36:07 12° SSW
Cosmos 1821 Rocket 3.9 20:29:57 10° N 20:36:06 80° E 20:40:28 20° SSE
Cosmos 2218 Rocket 4.3 20:34:28 10° NNW 20:40:49 67° W 20:46:01 15° S
Cosmos 1805 2.8 20:45:46 10° N 20:49:15 89° W 20:50:42 33° S
Cosmos 1812 Rocket 3.9 20:48:56 14° SSW 20:52:36 61° WNW 20:56:53 10° N
Cosmos 1980 Rocket 2.4 20:48:31 10° NW 20:54:02 63° WSW 20:57:27 24° S
NOSS 3-1 (A) 3.1 20:50:27 13° SSW 20:54:39 57° SE 21:00:22 10° NE
USA 234 3.3 20:48:20 10° ENE 20:54:54 83° NNW 21:01:27 10° WSW
Terra 4.2 20:52:36 10° SW 20:55:27 16° W 20:58:18 10° NW
ATLAS CENTAUR R/B 3.0 20:53:44 10° WSW 20:57:09 32° NW 21:00:40 10° NNE
Cosmos 1315 Rocket 3.1 20:55:12 17° SSW 20:58:04 61° WNW 21:01:56 10° N
Sich 1 4.5 20:56:22 10° NNE 20:59:57 25° ENE 21:01:52 18° ESE
BREEZE-M DEB (TANK) 3.9 20:44:53 10° W 21:01:26 79° SSW 21:05:28 13° ESE
Cosmos 2208 Rocket 4.4 20:56:16 10° SSW 21:01:38 68° WNW 21:06:57 10° NNE
Cosmos 2181 Rocket 4.3 20:58:41 12° SSW 21:04:32 69° WNW 21:10:56 10° N
SL-16 R/B 2.9 20:59:50 10° NNW 21:05:20 48° NE 21:09:15 19° ESE
DELTA 2 DEB (DPAF) 3.8 21:02:47 10° NNE 21:06:46 79° WNW 21:09:02 24° SSW
Meteor 1-11 Rocket 3.6 21:02:16 10° NNW 21:07:49 85° ENE 21:10:57 27° SSE
NOSS 2-1 (C) 4.2 21:09:43 23° E 21:09:43 23° E 21:11:28 10° ENE
Genesis I 3.7 21:06:17 10° NNW 21:08:50 33° NE 21:09:43 26° E
Cosmos 783 Rocket 4.5 21:06:53 24° S 21:09:59 65° ESE 21:15:10 10° NNE
BlueWalker 3 3.4 21:07:15 10° W 21:10:02 21° SW 21:10:12 21° SW
Cosmos 2322 Rocket 3.3 21:08:57 10° NNW 21:14:13 37° NE 21:18:39 14° ESE
Cosmos 1975 3.1 21:10:53 10° N 21:14:28 48° ENE 21:15:35 35° SE
Cosmos 2237 4.3 21:09:05 10° NNW 21:14:48 75° ENE 21:18:07 26° SE
Exosat Rocket 4.4 21:11:07 10° NNW 21:16:00 41° NE 21:19:21 18° ESE
Cosmos 1707 4.1 21:18:01 19° E 21:18:11 19° E 21:20:40 10° NE
CZ-4C R/B 2.9 21:14:52 10° NNE 21:18:33 79° ESE 21:19:41 41° S
Spot 4 4.3 21:17:45 27° SE 21:20:06 50° ENE 21:24:43 10° N
Cosmos 1408 Rocket 4.2 21:19:32 10° N 21:23:42 42° ENE 21:25:23 29° SE
Cosmos 1238 Rocket 4.2 21:22:13 13° SW 21:24:51 28° WNW 21:27:45 10° NNW
ARIANE 5 R/B 2.6 21:23:51 35° SSE 21:25:37 75° ENE 21:30:00 10° NNW
Nadezhda 3 Rocket 4.0 21:21:59 23° S 21:26:05 88° WNW 21:32:22 10° N
Cosmos 1842 Rocket 3.5 21:25:47 36° SSE 21:27:22 67° E 21:31:40 10° NNE
Cosmos 1805 Rocket 4.4 21:26:36 10° N 21:30:48 40° ENE 21:32:35 27° ESE
Cosmos 1766 2.9 21:27:25 10° N 21:30:52 70° ENE 21:31:35 50° SE
Cosmos 2278 3.8 21:25:56 10° NNW 21:31:35 70° ENE 21:34:47 26° SE
Cosmos 1934 Rocket 4.0 21:25:46 10° N 21:32:02 84° E 21:35:32 29° SSE
Cosmos 1470 3.6 21:29:13 10° N 21:32:32 34° ENE 21:33:25 29° ESE
Cosmos 1908 3.3 21:29:51 10° N 21:33:01 45° ENE 21:33:32 40° ESE
CENTAUR R/B 3.7 21:26:04 10° NW 21:33:48 59° NE 21:42:51 10° ESE
Cosmos 2360 Rocket 3.1 21:28:36 10° NNW 21:33:57 42° NE 21:38:04 16° ESE
ATLAS 3B R/B 3.2 21:30:07 25° S 21:34:10 47° ESE 21:41:34 10° NE
USA 229 DEB 4.3 21:33:24 26° SE 21:35:07 31° ESE 21:40:45 10° NE
USA 229 4.3 21:33:31 26° SE 21:35:13 30° ESE 21:40:49 10° NE
Cosmos 1536 4.3 21:32:36 10° NNW 21:35:52 27° W 21:37:32 20° SW
SeaSat 1 3.7 21:36:40 21° SSW 21:38:46 29° WSW 21:43:04 10° NW
Cosmos 2369 4.3 21:33:29 10° NW 21:38:52 46° WSW 21:41:29 27° SSW
Cosmos 1339 Rocket 4.4 21:35:54 27° S 21:39:21 84° E 21:45:28 10° N
Cosmos 2221 4.2 21:37:29 11° SW 21:40:54 28° WNW 21:44:32 10° N
Cosmos 405 Rocket 2.7 21:37:37 10° NNW 21:40:59 55° W 21:41:40 45° SW
CZ-2C R/B 3.5 21:37:34 10° NNE 21:41:59 80° ESE 21:43:42 37° S
Cosmos 2082 Rocket 2.4 21:42:05 14° SW 21:46:53 70° WNW 21:52:32 10° NNE
Cosmos 1605 Rocket 4.1 21:40:59 10° N 21:47:20 68° ENE 21:50:39 29° SSE
Cosmos 1674 4.0 21:48:35 15° WNW 21:48:44 15° WNW 21:50:11 10° NNW
Cosmos 1743 Rocket 4.2 21:44:48 10° N 21:49:05 45° ENE 21:50:45 31° SE
KORONAS-FOTON 3.7 21:48:44 52° SE 21:49:10 57° E 21:52:36 10° NNE
Timation 1 Rocket 4.3 21:47:15 19° SSW 21:51:44 85° WNW 21:57:46 10° NNE
Okean 3 Rocket 3.9 21:53:16 10° NNW 21:57:36 57° W 21:59:09 36° SSW
ISS -1.4 21:55:27 10° W 21:56:12 13° WSW 21:56:12 13° WSW
Landsat 5 3.4 21:54:33 10° NNE 21:58:44 88° E 22:00:10 41° SSW
COSMOS 2406 3.2 21:59:10 22° SW 22:02:57 81° WNW 22:08:43 10° NNE
Cosmos 1842 2.9 22:02:54 59° SE 22:03:17 65° E 22:06:44 10° NNE
USA 59 Rocket -0.6 22:10:23 46° WSW 22:11:06 66° NW 22:14:03 10° NE
Cosmos 2333 Rocket 2.2 22:07:15 10° NNW 22:13:01 85° ENE 22:15:54 31° SSE
Cosmos 1455 4.0 22:13:30 10° NE 22:15:00 13° ENE 22:15:31 13° E
Cosmos 1300 2.9 22:14:29 10° N 22:17:32 43° ENE 22:17:48 42° E
Cosmos 1151 Rocket 2.9 22:19:28 47° SSE 22:20:35 73° E 22:24:48 10° NNE
ALOS 2 2.8 22:19:44 41° SSW 22:21:02 60° W 22:25:24 10° NNW
NOSS 2-1 (E) 3.1 22:21:20 41° WSW 22:22:12 62° NW 22:25:13 10° NE
Cosmos 1666 Rocket 4.3 22:19:01 10° N 22:23:13 44° ENE 22:24:54 29° SE
PSLV R/B 4.0 22:23:43 10° NNE 22:27:32 55° E 22:28:13 47° SE
Cosmos 2219 Rocket 2.6 22:23:20 10° NNW 22:28:55 59° NE 22:32:39 21° SE
Cosmos 923 Rocket 4.3 22:27:14 36° SSE 22:29:07 55° ESE 22:34:19 10° NNE
Iridium 45 4.4 22:26:24 10° N 22:29:46 70° E 22:30:11 61° SE
Cosmos 2333 4.3 22:24:58 10° NNW 22:30:41 77° ENE 22:33:47 28° SE
Meteor 2-4 Rocket 3.9 22:30:52 29° SSW 22:33:47 68° WNW 22:39:37 10° N
Cosmos 1980 Rocket 4.4 22:35:41 10° W 22:36:53 11° W 22:38:04 10° WSW
Cosmos 1727 Rocket 4.1 22:34:09 32° SSE 22:37:07 65° E 22:43:15 10° NNE
Sich 1 3.9 22:33:22 10° NNW 22:37:17 37° W 22:38:23 31° SW
USA 234 4.0 22:31:19 10° ENE 22:37:39 54° N 22:43:57 10° W
NOSS 2-1 (D) 4.0 22:36:14 22° W 22:37:48 38° NW 22:40:38 10° NNE
SL-24 R/B - RUBIN 2 4.3 22:37:01 31° SSW 22:40:06 68° SE 22:45:53 10° NE
CZ-2C R/B 4.0 22:36:30 13° ESE 22:40:25 32° ENE 22:44:57 10° N
Cosmos 1680 Rocket 3.8 22:39:24 36° SSE 22:41:11 51° ESE 22:46:14 10° NNE
Cosmos 1371 Rocket 4.1 22:37:21 10° NNW 22:42:44 76° ENE 22:45:27 30° SE
Meteor 2-19 Rocket 4.4 22:40:36 33° S 22:43:28 78° E 22:49:33 10° NNE
PSLV R/B 3.5 22:41:24 10° N 22:45:34 72° WNW 22:46:52 42° SW
Cosmos 2056 Rocket 3.5 22:43:03 10° NNW 22:48:25 84° ENE 22:50:55 32° SSE
SL-16 R/B 3.0 22:44:10 10° NW 22:49:18 36° WSW 22:51:04 29° SW
Cosmos 2100 Rocket 4.1 22:43:43 10° N 22:50:05 75° E 22:53:28 29° SSE
Cosmos 1241 Rocket 4.5 22:44:11 10° NW 22:50:44 89° WSW 22:55:04 22° SE
Cosmos 1470 Rocket 4.3 22:47:05 10° N 22:51:15 45° ENE 22:53:02 28° SE
Cosmos 1707 3.7 22:51:13 27° W 22:51:56 30° WNW 22:54:57 10° N
H-2A R/B 3.3 22:50:24 26° ESE 22:52:06 41° ENE 22:55:46 10° N
Cosmos 1624 Rocket 3.9 22:47:12 10° NNW 22:52:26 87° ENE 22:54:51 33° SSE
Geosat FO 4.2 22:54:35 65° W 22:54:35 65° W 22:57:27 10° NW
Cosmos 2322 Rocket 2.5 22:52:58 10° NW 22:58:26 49° WSW 23:00:24 34° SSW
Cosmos 1633 Rocket 3.0 22:55:00 10° N 22:59:22 81° E 23:00:47 42° SSE
Cosmos 1802 Rocket 4.3 22:53:38 10° N 22:59:56 64° ENE 23:03:51 24° SSE
Cosmos 44 Rocket 4.5 22:59:05 10° NNW 23:03:37 41° NE 23:08:14 10° ESE
Cosmos 1459 Rocket 3.9 22:57:38 10° N 23:03:48 84° E 23:07:06 30° SSE
COSMOS 2428 3.6 22:58:31 10° NNW 23:04:04 48° NE 23:09:36 10° SE
Cosmos 1470 4.4 23:04:19 10° NW 23:06:55 19° W 23:07:19 19° W
Iridium 51 4.0 23:03:51 10° N 23:07:29 81° E 23:08:15 54° SSE
Meteor 2-10 Rocket 3.7 23:02:33 10° NNW 23:08:19 84° W 23:11:08 32° S
Cosmos 1000 Rocket 4.4 23:08:01 32° S 23:11:04 84° E 23:17:17 10° N
Cosmos 1725 Rocket 4.1 23:08:15 10° N 23:14:28 70° ENE 23:18:16 25° SSE
GP-B 3.8 23:10:55 10° N 23:15:04 42° W 23:16:31 31° SW
Cosmos 1515 Rocket 4.3 23:14:53 30° SE 23:16:28 43° E 23:20:37 10° NNE
Cosmos 2360 Rocket 2.7 23:12:42 10° NW 23:17:57 41° WSW 23:19:47 32° SSW
Cosmos 2173 Rocket 4.0 23:12:09 10° NNW 23:18:31 75° W 23:21:47 30° S
Cosmos 1758 3.1 23:19:14 10° N 23:23:05 83° E 23:24:09 46° SSE
ASTEX 1 4.0 23:19:13 10° N 23:23:56 47° WNW 23:26:06 29° SW
Cosmos 1328 Rocket 3.5 23:23:10 41° SSW 23:24:34 73° WNW 23:28:54 10° N
CENTAUR R/B 3.4 23:16:45 10° NW 23:24:49 59° WSW 23:31:23 20° SSE
ATLAS 3B R/B 3.4 23:17:24 10° WSW 23:24:53 62° NW 23:32:43 10° NE
USA 229 DEB 3.7 23:20:46 19° SW 23:25:26 72° NW 23:32:22 10° NE
USA 229 3.7 23:20:54 19° SW 23:25:31 72° NW 23:32:27 10° NE
GEOS 3 Rocket 3.5 23:21:48 16° SE 23:25:55 88° SW 23:31:07 10° NW
CZ-2C R/B 3.8 23:24:10 10° NNE 23:29:50 53° E 23:32:57 26° SSE
H-2A R/B 4.3 23:28:29 10° NE 23:30:55 15° E 23:33:14 10° SE
Cosmos 2082 Rocket 4.5 23:27:58 10° W 23:32:00 20° NW 23:36:04 10° NNE
In-Cosmos 22 4.3 23:31:00 31° SSW 23:33:51 73° WNW 23:39:39 10° N
Cosmos 2123 Rocket 4.0 23:30:43 29° S 23:34:10 86° E 23:40:32 10° N
Cosmos 2233 Rocket 4.2 23:29:31 10° N 23:35:45 70° ENE 23:40:07 21° SSE
Cosmos 2112 Rocket 4.2 23:41:11 28° SW 23:43:55 64° WNW 23:49:08 10° NNE
Cosmos 1455 2.6 23:44:48 10° NNW 23:47:02 30° W 23:47:02 30° W
Cosmos 2237 Rocket 3.2 23:43:55 10° NNW 23:49:21 45° NE 23:54:46 10° SE
SL-14 R/B 3.7 23:53:45 35° SW 23:54:59 50° WNW 23:58:46 10° N
CZ-2D R/B 4.2 23:51:26 10° NE 23:55:21 20° E 23:59:13 10° SE
